Regional Weather Roundup
Issued by NWS Cleveland, OH

Home | Current Version | Previous Version | Graphics & Text | Print | Product List | Glossary On
Versions: 1 2 3 4 5 6 7 8 9 10 11 12 13 14 15 16 17 18 19 20 21 22 23 24 25 26 27 28 29 30 31 32 33 34 35 36 37 38 39 40 41 42 43 44 45 46 47 48 49 50
000
ASUS41 KCLE 110002
RWRCLE
OHIO REGIONAL WEATHER ROUNDUP
NATIONAL WEATHER SERVICE CLEVELAND, OH
700 PM EST SUN DEC 10 2017

NOTE: "FAIR" INDICATES FEW OR NO CLOUDS BELOW 12,000 FEET WITH NO
SIGNIFICANT WEATHER AND/OR OBSTRUCTIONS TO VISIBILITY.

OHZ001>008-015>018-024>027-034-035-043-044-110100-
   NORTHWEST OHIO

CITY           SKY/WX    TMP DP  RH WIND       PRES   REMARKS
DEFIANCE       CLOUDY    30  21  69 S5        29.96R WCI  25
FINDLAY        CLOUDY    31  19  61 SW12      29.95F WCI  22
TOLEDO EXPRESS CLOUDY    29  22  75 S6        29.95S WCI  23
TOLEDO EXEC    CLOUDY    30  21  69 SW10      29.97S WCI  21
LIMA           CLOUDY    30  21  69 S8        29.96S WCI  22
$$

OHZ009>014-019>023-028>033-038-089-110100-
   NORTHEAST OHIO

CITY           SKY/WX    TMP DP  RH WIND       PRES   REMARKS
CLE-HOPKINS    CLOUDY    30  18  60 SW12      29.99R WCI  20
CLE-LAKEFRONT  CLOUDY    30  17  58 SW15      29.96S WCI  19
CUY CO. ARPT   FLURRIES  30  19  64 SW17      29.96S WCI  18
LORAIN-ELYRIA  CLOUDY    29  16  58 SW14      29.97R WCI  18
ASHTABULA      FLURRIES  27  19  72 W17       29.95R WCI  14
AKRON-CANTON   CLOUDY    29  16  58 SW10      29.96R WCI  20
WOOSTER        CLOUDY    28  19  69 SW9       29.97R WCI  19
MANSFIELD      CLOUDY    28  19  69 SW9       29.96R WCI  19
YOUNGSTOWN     CLOUDY    29  16  58 SW13      29.95R WCI  19
$$

OHZ042-051>053-060>062-070>072-077>081-110100-
  SOUTHWEST OHIO

CITY           SKY/WX    TMP DP  RH WIND       PRES   REMARKS
CINC-COVINGTON PTCLDY    33  20  58 SW7       30.01R WCI  27
CINC-LUNKEN    CLOUDY    33  19  56 SW3       30.05R
HAMILTON       PTCLDY    30  21  69 CALM      30.03R
DAYTON         CLOUDY    30  21  69 SW7       30.00R WCI  23
WRIGHT-PAT AFB CLOUDY    31  22  68 SW7       30.00R WCI  24
DAYTON GENERAL CLOUDY    32  19  58 SW7       29.99R WCI  26
WILMINGTON     PTCLDY    29  21  72 SW7       30.00R WCI  22
$$

OHZ036-037-039>041-045>050-054>059-063>069-073>076-082>088-110100-
  CENTRAL AND SOUTHEAST OHIO

CITY           SKY/WX    TMP DP  RH WIND       PRES   REMARKS
COLUMBUS       CLOUDY    32  21  64 SW7       30.01R WCI  26
OSU AIRPORT    CLOUDY    31  22  69 SW7       30.01R WCI  24
BOLTON FIELD   MOCLDY    28  21  74 SW6       30.01R WCI  22
RICKENBACK AFB CLOUDY    29  22  76 SW5       30.02R WCI  23
NEWARK         MOCLDY    31  20  63 SW6       30.00R WCI  25
MARION         CLOUDY    30  19  63 SW9       29.99R WCI  22
LANCASTER      PTCLDY    30  20  66 SW6       30.02R WCI  24
ZANESVILLE     CLOUDY    31  17  56 SW3       30.01R
NEW PHILLY     NOT AVBL
$$



USA.gov is the U.S. government's official web portal to all federal, state and local government web resources and services.